Погода в Хазянге

Вьетнам     22°50′27″N   104°59′48″E
темп.,
°C
ветер,
м/с
пор.,
м/с
влажн.,
%
обл.,
%
осадки,
мм/ч
давл.,
гПа
погр.,
м
24 января, вс
вс2401:00+16ссз118480 0.0 101323
04:00+15ю018997 0.0 101227
07:00+15ююв129099 0.0 1014100
10:00+18ююв1380100 0.0 1015527
13:00+20юв236897 0.3 1011837
16:00+20ю236892 0.2 1008831
19:00+15зюз119462 0.2 101123
22:00+14зсз11971 0.0 101323
25 января, пн
пн2501:00+16з008840 0.0 101325
04:00+15ююв019091 0.0 101324
07:00+15с019090 0.0 101529
10:00+20вюв117077 0.1 1017468
13:00+21юв126979 0.3 1015543
16:00+21ююв127093 0.2 1013444
19:00+17юз119069 0.3 101623
22:00+16юз009248 0.1 101723
26 января, вт
вт2601:00+16з019452 0.4 101623
04:00+16с009294 0.3 101623
07:00+16ю119589 0.8 101729
10:00+19ююв1383100 0.8 1018387
13:00+20юв247687 1.3 1014657
16:00+21ююв236832 0.3 1012929
19:00+18ю129140 0.9 101433
22:00+18ююз119196 0.3 101630
27 января, ср
ср2701:00+17ююз119390 0.5 101529
04:00+17ю1195100 0.2 101457
07:00+16ю129798 0.3 1015129
10:00+18ююв238898 0.4 1017433
13:00+21ююв247180 0.9 1013830
16:00+22ю236752 0.1 1011932
19:00+17ююз119251 0.2 101423
22:00+16зюз119446 0.0 101624
28 января, чт
чт2801:00+15ссз119448 0.0 101730
04:00+17ссз018889 0.0 101727
07:00+16зюз009394 0.3 102023
10:00+18ююз0190100 0.5 1022142
13:00+17ююв239594 2.7 1020270
16:00+15св1296100 1.1 1019166
19:00+13св1196100 1.9 1021102
22:00+13св1196100 0.8 1022119